sat.trackr.live / text

‹ back to catalog

STARLINK-31240

NORAD 59041 · 2024-038U

PAYLOAD ACTIVE UNKNOWN

§ Identity

Operator
Country
US
Launch date
2024-02-25
Launch site
AFETR
Launch vehicle
Mass (kg)
RCS (m²)

Purposes: comms

External: N2YO · Heavens-Above · Gunter

§ Orbital elements

Epoch: 2026-05-25T04:22:00.341760Z

Period
94.27 min
Inclination
43.0036°
Eccentricity
0.0001622
Mean motion
15.27579082 rev/d
Perigee alt
481.9 km
Apogee alt
484.2 km
Semi-major
6,861.2 km
B*
4.6210e-5
RAAN
311.8436°
Arg perigee
266.0822°
Mean anomaly
93.9845°
Rev number
12,649

§ Raw data

STARLINK-312401 59041U 24038U   26145.18194840  .00001009  00000+0  46210-4 0  99952 59041  43.0036 311.8436 0001622 266.0822  93.9845 15.27579082126496

JSON: /api/v1/satellites/59041 · /tle

For live sub-satellite position, see the globe view (requires WebGL).

§ Visibility from observer

Set your observer location to see the next 7 days of passes ≥ 10°. The values pass through the URL so the page stays shareable.

No JS? Fill the form by hand. The geolocation button needs JavaScript.